This is the latest recevied weather packets stored in our database for station/object OK3MS-5. If no packets are shown the sender has not sent any weather packets the latest 10 day(s).
| Time | Temp. | Humidity | Pressure | Rain* | Wind** | Luminosity | Snow |
|---|---|---|---|---|---|---|---|
| 1787730304 | 18.89° C | 70% | 1016.7 hPa | 0 mm | - | 383 W/m² | - |
| 1787730005 | 18.89° C | 70% | 1016.9 hPa | 0 mm | - | 167 W/m² | - |
| 1787729703 | 18.33° C | 72% | 1016.7 hPa | 0 mm | - | 277 W/m² | - |
| 1787729403 | 18.33° C | 71% | 1016.6 hPa | 0 mm | - | 249 W/m² | - |
| 1787729104 | 18.89° C | 70% | 1016.5 hPa | 0 mm | - | 327 W/m² | - |
| 1787728804 | 18.33° C | 70% | 1016.6 hPa | 0 mm | - | 306 W/m² | - |
| 1787728504 | 17.78° C | 72% | 1016.6 hPa | 0 mm | - | 298 W/m² | - |
| 1787728206 | 18.33° C | 72% | 1016.4 hPa | 0 mm | - | 277 W/m² | - |
| 1787727906 | 17.78° C | 72% | 1016.5 hPa | 0 mm | - | 241 W/m² | - |
| 1787727604 | 18.33° C | 72% | 1016.5 hPa | 0 mm | - | 348 W/m² | - |
| 1787727304 | 17.78° C | 72% | 1016.7 hPa | 0 mm | - | 307 W/m² | - |
| 1787727005 | 17.22° C | 73% | 1016.7 hPa | 0 mm | - | 185 W/m² | - |
| 1787726705 | 17.78° C | 74% | 1016.6 hPa | 0 mm | - | 254 W/m² | - |
| 1787726403 | 17.78° C | 74% | 1016.7 hPa | 0 mm | - | 229 W/m² | - |
| 1787726105 | 17.22° C | 74% | 1016.7 hPa | 0 mm | - | 273 W/m² | - |
| 1787725803 | 16.67° C | 76% | 1016.9 hPa | 0 mm | - | 247 W/m² | - |
| 1787725502 | 16.11° C | 77% | 1016.9 hPa | 0 mm | - | 155 W/m² | - |
| 1787725203 | 16.11° C | 78% | 1016.9 hPa | 0 mm | - | 114 W/m² | - |
| 1787724905 | 16.11° C | 78% | 1016.9 hPa | 0 mm | - | 95 W/m² | - |
| 1787724604 | 16.11° C | 79% | 1016.8 hPa | 0 mm | - | 82 W/m² | - |
| 1787724308 | 16.11° C | 79% | 1016.8 hPa | 0 mm | - | 69 W/m² | - |
| 1787724002 | 15.56° C | 80% | 1016.9 hPa | 0 mm | - | 68 W/m² | - |
| 1787723703 | 15.56° C | 82% | 1017 hPa | 0 mm | - | 75 W/m² | - |
| 1787723402 | 15.56° C | 85% | 1017.1 hPa | 0 mm | - | 77 W/m² | - |
| 1787723103 | 15° C | 86% | 1017.2 hPa | 0 mm | - | 76 W/m² | - |
* Rain latest hour (hover to see other rain measurements)
** Current wind speed in m/s (hover to see current wind gust speed)